Location: Igon
(43.1667°N, 0.2333°W)
Time: 15:09:42
(UTC+00:00)

EXPRESS MD2 - Pass Details

Date: 29 November 2020
Orbit: 262 x 3990 km, 49.9° (Epoch: 24 January)

Event Time Altitude Azimuth Distance (km) Brightness Sun altitude
Exits shadow 06:02:04 17° 310° (NW) 1,445 4.9 -12.3°
Maximum altitude 06:04:59 52° 23° (NNE) 925 4.5 -11.8°
Drops below altitude 10° 06:12:21 10° 99° (E) 3,410 8.8 -10.6°
Sets 06:16:44 0° 104° (ESE) 5,060 10.4 -9.8°
